Regional Weather Roundup
Issued by NWS Upton, NY

Current Version | Previous Version | Text Only | Print | Product List | Glossary On
Versions: 1 2 3 4 5 6 7 8 9 10 11 12 13 14 15 16 17 18 19 20 21 22 23 24 25 26 27 28 29 30 31 32 33 34 35 36 37 38 39 40 41 42 43 44 45 46 47 48 49 50
000 ASUS41 KOKX 291605 RWROKX REGIONAL WEATHER ROUNDUP NATIONAL WEATHER SERVICE NEW YORK NY 1200 PM EDT MON SEP 29 2014 NOTE: "FAIR" INDICATES FEW OR NO CLOUDS BELOW 12,000 FEET WITH NO SIGNIFICANT WEATHER AND/OR OBSTRUCTIONS TO VISIBILITY. NYZ071-072-176-178-NJZ106-104-291700- NEW YORK CITY METRO AREA CITY SKY/WX TMP DP RH WIND PRES REMARKS CENTRAL PARK CLOUDY 75 58 55 CALM 29.98F LAGUARDIA APRT CLOUDY 74 58 57 E7 29.95F KENNEDY INTL CLOUDY 75 61 61 CALM 29.97F NEWARK/LIBERTY CLOUDY 75 57 53 CALM 29.96F BRNX BOT. GARD N/A 75 59 57 SE2 29.97F TETERBORO CLOUDY 78 57 48 SE3 29.95F $$ NYZ177-179-078>081-291700- LONG ISLAND NEW YORK CITY SKY/WX TMP DP RH WIND PRES REMARKS FARMINGDALE CLOUDY 73 61 65 CALM 29.96F ISLIP CLOUDY 73 62 68 SW3 29.95F SHIRLEY CLOUDY 73 64 73 S3 29.97F WESTHAMPTON CLOUDY 72 63 73 S5 29.98F MONTAUK POINT N/A 71 65 81 S5 29.98F $$ NYZ052-065-067-291700- HUDSON VALLEY CITY SKY/WX TMP DP RH WIND PRES REMARKS WHITE PLAINS CLOUDY 77 56 48 CALM 29.96F NEWBURGH PTSUNNY 72 59 64 CALM 29.99F MONTGOMERY CLOUDY 73 57 57 N6 29.97F POUGHKEEPSIE CLOUDY 72 57 59 CALM 29.97F ALBANY CLOUDY 67 58 72 VRB3 29.99F $$ NJZ001-105-106-008-010-013-015-019>022-104-291700- NEW JERSEY CITY SKY/WX TMP DP RH WIND PRES REMARKS NEWARK/LIBERTY CLOUDY 75 57 53 CALM 29.96F TETERBORO CLOUDY 78 57 48 SE3 29.95F CALDWELL CLOUDY 76 57 51 CALM 29.97F MORRISTOWN CLOUDY 75 59 57 CALM 29.97F SOMERVILLE CLOUDY 74 59 59 S3 29.96S LINDEN FAIR 78 60 52 CALM 29.98F SUSSEX CLOUDY 75 57 53 CALM 29.98F ANDOVER N/A 72 57 59 CALM 29.98F TRENTON CLOUDY 74 59 59 W3 29.98S MILLVILLE CLOUDY 71 64 78 W5 30.00S ATLANTIC CITY CLOUDY 75 61 61 W6 29.98F WRIGHTSTOWN CLOUDY 75 62 64 W7 29.96S TOMS RIVER PTSUNNY 79 57 47 W6 29.98S BELMAR PTSUNNY 75 61 60 CALM 29.98S $$ PAZ047>061-062-071-291700- EASTERN PENNSYLVANIA CITY SKY/WX TMP DP RH WIND PRES REMARKS PHILADELPHIA PTSUNNY 73 62 68 S7 29.99F ALLENTOWN PTSUNNY 74 57 55 SW5 29.98F SCRANTON CLOUDY 71 55 56 NW3 29.98F $$ CTZ002-004>006-009-010-012-RIZ004-006-007-MAZ004-011-015-291700- SOUTHERN NEW ENGLAND IN CT CITY SKY/WX TMP DP RH WIND PRES REMARKS BRADLEY INTL CLOUDY 72 58 61 N5 29.97S HARTFORD PTSUNNY 70 60 70 VRB6 29.97S DANBURY CLOUDY 75 55 49 NE3 29.98F WTRBRY/OXFORD PTSUNNY 73 57 56 CALM 29.99F BRIDGEPORT CLOUDY 71 61 70 E5 29.96F MERIDEN PTSUNNY 73 59 61 CALM 29.97F NEW HAVEN PTSUNNY 73 60 63 CALM 29.97F CHESTER FAIR 73 61 64 CALM 29.99S GROTON PTSUNNY 70 65 84 SW8 29.97R WILLIMANTIC CLOUDY 68 61 78 CALM 29.98S IN RI CITY SKY/WX TMP DP RH WIND PRES REMARKS PROVIDENCE CLOUDY 71 62 73 S6 29.97F BLOCK ISLAND PTSUNNY 70 63 78 SW12 29.99R WESTERLY PTSUNNY 70 64 81 SW6 29.99R IN MA CITY SKY/WX TMP DP RH WIND PRES REMARKS BOSTON CLOUDY 72 59 63 E8 29.97S WORCESTER CLOUDY 69 58 67 NE5 30.00S WESTFIELD CLOUDY 73 56 54 NE8 29.96F PROVINCETOWN CLOUDY 68 61 77 W5 29.96F NANTUCKET CLOUDY 70 65 84 SW10 29.97F $$ ANZ330-335-338-340-345-350-353-355-291700- COASTAL MARINE OBSERVATIONS STATION/POSITION TIME SKY/WX TEMP WIND PRES VSBY WAVE AIR SEA DIR/SP/G HT/PER (UTC) (F) (DEG/KT/KT) (MB) (MI) (FT/S) NY HARB ENTRANCE 1600 68 69 230/ 4/ 4 1015.3 2/ 8 4S FIRE IS 1600 69 N/A 2/ 4 20S FIRE ISLAND 1600 68 68 220/ 6/ 8 1014.8 2/ 8 23SW MTP 1600 N/A 2/ 4 HUDSON CANYON 1600 69 70 230/ 8/ 10 1015.4 2/ 7 EXECUTION ROCKS 1600 70 69 100/ 4/ 4 N/A WESTERN LI SOUND 1600 69 120/ 2/ 4 N/A 0 CENTRAL LI SOUND 1500 68 69 270/ 6/ 6 N/A 0 EASTERN LI SOUND 1500 70 68 220/ 6/ 8 N/A ROBBINS REEF 1600 72 CALM 1013.4 $$ >>>>>>>>>>>>>>>>>>>>>>>>>>>> KEY <<<<<<<<<<<<<<<<<<<<<<<<<<< > < > SKY/WX - SKY CONDITION/PRESENT WEATHER < > TMP - TEMPERATURE IN FAHRENHEIT < > DP - DEWPOINT IN FAHRENHEIT < > RH - RELATIVE HUMIDITY IN PERCENT < > WIND - DIRECTION AND SPEED IN MPH < > PRES - MEAN SEA LEVEL PRESSURE IN INCHES OF HG < > WCI - WIND CHILL INDEX < > VSB - VISIBILITY IN MILES < > HX - HEAT INDEX < > TC - TEMPERATURE IN CELSIUS < > VRB - VARIABLE WIND DIRECTION < > < >>>>>>>>>>>>>>>>>>>>>>>>>>>> KEY <<<<<<<<<<<<<<<<<<<<<<<<<<<

USA.gov is the U.S. government's official web portal to all federal, state and local government web resources and services.